Location: *
(49.9853°N, 3.5569°E)
Time: 05:54:29
(UTC+00:00)

Cosmos 1544 Rocket - Pass Details

Date: 22 September 2019
Orbit: 604 x 632 km, 82.5° (Epoch: 17 October)

Event Time Altitude Azimuth Distance (km) Brightness Sun altitude
Rises 19:41:53 0° 190° (S) 2,913 6.9 -19.1°
Reaches altitude 10° 19:44:06 10° 191° (S) 2,010 6.0 -19.4°
Maximum altitude 19:48:34 83° 278° (W) 643 3.6 -20.1°
Drops below altitude 10° 19:53:04 10° 9° (N) 2,019 6.4 -20.7°
Sets 19:55:19 0° 10° (N) 2,928 7.3 -21.0°
